Location: Arborea
(39.7744°N, 8.5819°E)
Time: 02:43:18
(UTC+00:00)

USA 229 - Pass Details

Date: 05 June 2022
Orbit: 938 x 1274 km, 63.4° (Epoch: 24 May)

Event Time Altitude Azimuth Distance (km) Brightness Sun altitude
Rises 20:32:09 0° 330° (NNW) 3,959 8.4 -15.8°
Reaches altitude 10° 20:35:02 10° 338° (NNW) 3,049 7.2 -16.2°
Maximum altitude 20:41:47 37° 45° (NE) 1,785 4.9 -17.0°
Enters shadow 20:47:19 16° 104° (ESE) 2,763 5.4 -17.7°
